Elmira, NY

1:47 AM EST on February 07, 2016 (GMT -0500)
Elmira-Corning Regional

Weather History for KELM - August, 2013

Change the Weather History Date:

Saturday, August 24, 2013

  Actual Average Record
Temperature  
Mean Temperature 60 °F -  
Max Temperature 78 °F 77 °F 95 °F (1947)
Min Temperature 44 °F 51 °F 38 °F (1971)
Degree Days  
Heating Degree Days 4    
Growing Degree Days 10 (Base 50)    
Moisture  
Dew Point 50 °F    
Average Humidity 85    
Maximum Humidity 100    
Minimum Humidity 34    
Precipitation  
Precipitation 0.00 in - - ()
Sea Level Pressure  
Sea Level Pressure 30.29 in    
Wind  
Wind Speed 2 mph (West)    
Max Wind Speed 8 mph    
Max Gust Speed -    
Visibility 4 miles    
Events Fog    
Averages and records for this station are not official NWS values.
T = Trace of Precipitation, MM = Missing Value Source: NWS Daily Summary

Daily Weather History Graph

Daily Weather History Graph

Search for Another Location

Airport or City:

Trip Planner

Search our weather history database for the weather conditions in past years. The results will help you decide how hot, cold, wet, or windy it might be!

Date:

Astronomy

Aug. 24, 2013 Rise Set
Actual Time 6:24 AM EDT 7:54 PM EDT
Civil Twilight 5:55 AM EDT 8:23 PM EDT
Nautical Twilight 5:19 AM EDT 8:58 PM EDT
Astronomical Twilight 4:42 AM EDT 9:36 PM EDT
Moon 9:41 PM EDT (8/24) 10:27 AM EDT (8/24)
Length of Visible Light 14h 27m
Length of Day
13h 29m
Waning Gibbous, 84% of the Moon is Illuminated
Aug 24
Waning Gibbous
Aug 28
Last Quarter
Sep 5
New
Sep 12
First Quarter
Sep 19
Full

Hourly Weather History & Observations

Time (EDT) Temp. Dew Point Humidity Pressure Visibility Wind Dir Wind Speed Gust Speed Precip Events Conditions
12:53 AM 54.0 °F 51.1 °F 90% 30.22 in 10.0 mi SW 3.5 mph - N/A   Clear
1:53 AM 50.0 °F 48.0 °F 93% 30.23 in 2.0 mi Calm Calm - N/A   Clear
2:03 AM 48.2 °F 48.2 °F 100% 30.23 in 1.5 mi Calm Calm - N/A   Clear
2:08 AM 48.2 °F 46.4 °F 93% 30.23 in 4.0 mi Calm Calm - N/A   Clear
2:13 AM 48.2 °F 46.4 °F 93% 30.23 in 1.5 mi Calm Calm - N/A   Clear
2:20 AM 48.2 °F 46.4 °F 93% 30.23 in 0.2 mi Calm Calm - N/A Fog Fog
2:31 AM 50.0 °F 48.2 °F 94% 30.24 in 1.0 mi Calm Calm - N/A   Clear
2:45 AM 48.2 °F 48.2 °F 100% 30.24 in 3.0 mi Calm Calm - N/A   Clear
2:53 AM 48.0 °F 46.9 °F 96% 30.24 in 2.0 mi Calm Calm - N/A   Clear
3:02 AM 48.2 °F 48.2 °F 100% 30.25 in 5.0 mi Calm Calm - N/A   Clear
3:05 AM 48.2 °F 48.2 °F 100% 30.25 in 1.5 mi Calm Calm - N/A   Clear
3:32 AM 48.2 °F 46.4 °F 93% 30.25 in 0.2 mi Calm Calm - N/A Fog Fog
3:49 AM 44.6 °F 44.6 °F 100% 30.26 in 1.0 mi Calm Calm - N/A   Mist
3:50 AM 44.6 °F 44.6 °F 100% 30.26 in 1.8 mi Calm Calm - N/A   Partly Cloudy
3:53 AM 45.0 °F 44.1 °F 97% 30.26 in 1.8 mi Calm Calm - N/A   Partly Cloudy
3:58 AM 46.4 °F 44.6 °F 93% 30.26 in 0.8 mi Calm Calm - N/A   Clear
4:08 AM 48.2 °F 46.4 °F 93% 30.26 in 2.0 mi SW 4.6 mph - N/A   Clear
4:16 AM 50.0 °F 48.2 °F 94% 30.26 in 10.0 mi SW 3.5 mph - N/A   Partly Cloudy
4:32 AM 51.8 °F 50.0 °F 94% 30.27 in 10.0 mi WSW 3.5 mph - N/A   Mostly Cloudy
4:53 AM 51.1 °F 50.0 °F 96% 30.28 in 4.0 mi West 4.6 mph - N/A   Overcast
5:00 AM 51.8 °F 50.0 °F 94% 30.28 in 2.0 mi Calm Calm - N/A   Overcast
5:08 AM 51.8 °F 51.8 °F 100% 30.28 in 1.0 mi Variable 3.5 mph - N/A   Overcast
5:16 AM 51.8 °F 51.8 °F 100% 30.28 in 0.5 mi West 3.5 mph - N/A Fog Fog
5:21 AM 51.8 °F 51.8 °F 100% 30.28 in 0.2 mi WSW 3.5 mph - N/A Fog Fog
5:30 AM 51.8 °F 51.8 °F 100% 30.29 in 0.5 mi WSW 3.5 mph - N/A Fog Fog
5:45 AM 51.8 °F 51.8 °F 100% 30.29 in 0.2 mi West 3.5 mph - N/A Fog Fog
5:53 AM 51.1 °F 50.0 °F 96% 30.29 in 0.5 mi Calm Calm - N/A Fog Fog
6:23 AM 51.8 °F 51.8 °F 100% 30.31 in 0.2 mi WNW 3.5 mph - N/A Fog Fog
6:53 AM 52.0 °F 51.1 °F 97% 30.32 in 0.2 mi Calm Calm - N/A Fog Fog
7:06 AM 51.8 °F 51.8 °F 100% 30.32 in 0.2 mi West 4.6 mph - N/A Fog Fog
7:53 AM 53.1 °F 51.1 °F 93% 30.34 in 0.2 mi SW 4.6 mph - N/A Fog Fog
8:42 AM 53.6 °F 51.8 °F 94% 30.35 in 0.5 mi WSW 4.6 mph - N/A Fog Fog
8:53 AM 53.1 °F 52.0 °F 96% 30.35 in 0.2 mi Calm Calm - N/A Fog Fog
9:02 AM 53.6 °F 53.6 °F 100% 30.35 in 0.5 mi Calm Calm - N/A Fog Fog
9:24 AM 55.4 °F 53.6 °F 94% 30.35 in 2.0 mi Calm Calm - N/A   Overcast
9:53 AM 57.0 °F 55.0 °F 93% 30.36 in 4.0 mi Calm Calm - N/A   Scattered Clouds
10:53 AM 68.0 °F 54.0 °F 61% 30.35 in 10.0 mi Calm Calm - N/A   Scattered Clouds
11:53 AM 71.1 °F 50.0 °F 47% 30.35 in 10.0 mi WSW 3.5 mph - N/A   Clear
12:53 PM 73.0 °F 51.1 °F 46% 30.32 in 10.0 mi NE 5.8 mph - N/A   Partly Cloudy
1:53 PM 75.0 °F 50.0 °F 41% 30.33 in 10.0 mi Variable 6.9 mph - N/A   Clear
2:53 PM 75.0 °F 48.0 °F 38% 30.32 in 10.0 mi ENE 8.1 mph - N/A   Clear
3:53 PM 77.0 °F 48.0 °F 36% 30.31 in 10.0 mi Calm Calm - N/A   Clear
4:53 PM 77.0 °F 46.9 °F 34% 30.30 in 10.0 mi Calm Calm - N/A   Clear
5:53 PM 75.9 °F 48.9 °F 38% 30.31 in 10.0 mi NNE 5.8 mph - N/A   Clear
6:53 PM 73.0 °F 53.1 °F 49% 30.31 in 10.0 mi NNE 5.8 mph - N/A   Clear
7:53 PM 66.9 °F 52.0 °F 59% 30.33 in 10.0 mi NE 5.8 mph - N/A   Clear
8:53 PM 57.0 °F 51.1 °F 81% 30.35 in 10.0 mi North 4.6 mph - N/A   Clear
9:53 PM 57.9 °F 52.0 °F 81% 30.36 in 10.0 mi Calm Calm - N/A   Clear
10:53 PM 54.0 °F 51.1 °F 90% 30.35 in 10.0 mi Calm Calm - N/A   Clear
11:53 PM 52.0 °F 50.0 °F 93% 30.35 in 10.0 mi Calm Calm - N/A   Clear